�������l�o���
Date,Time,MP-1(��Sv/h),MP-2(��Sv/h),MP-3(��Sv/h),MP-4(��Sv/h),MP-5(��Sv/h),MP-6(��Sv/h),MP-7(��Sv/h),MP-8(��Sv/h),����,����(m/s),���J
2019/01/22,00:00,0.795,1.183,0.827,1.520,1.089,0.453,0.804,0.760,���k��,7.9,��
2019/01/22,00:10,0.797,1.182,0.826,1.523,1.089,0.454,0.804,0.759,���k��,9.2,��
2019/01/22,00:20,0.795,1.183,0.826,1.519,1.090,0.453,0.803,0.760,��,7.4,��
2019/01/22,00:30,0.794,1.185,0.827,1.522,1.089,0.452,0.804,0.759,��,8.2,�L
2019/01/22,00:40,0.797,1.184,0.828,1.520,1.090,0.454,0.803,0.759,���k��,6.9,�L
2019/01/22,00:50,0.795,1.179,0.827,1.521,1.089,0.453,0.804,0.758,�k��,7.3,�L
2019/01/22,01:00,0.795,1.182,0.827,1.521,1.088,0.453,0.803,0.759,�k��,7.9,��
2019/01/22,01:10,0.796,1.182,0.831,1.523,1.089,0.453,0.804,0.758,�k��,6.8,��
2019/01/22,01:20,0.796,1.184,0.829,1.524,1.090,0.452,0.804,0.758,�k��,7.2,��
2019/01/22,01:30,0.795,1.181,0.829,1.521,1.090,0.452,0.804,0.759,���k��,5.4,��
2019/01/22,01:40,0.798,1.181,0.828,1.521,1.088,0.453,0.805,0.758,��,3.5,��
2019/01/22,01:50,0.795,1.183,0.830,1.520,1.088,0.453,0.802,0.759,���쐼,2.6,��
2019/01/22,02:00,0.795,1.181,0.829,1.521,1.090,0.454,0.803,0.760,���쐼,3.5,��
2019/01/22,02:10,0.796,1.182,0.830,1.520,1.090,0.452,0.801,0.759,���쐼,4.7,��
2019/01/22,02:20,0.795,1.182,0.829,1.517,1.090,0.454,0.802,0.759,��,5.6,��
2019/01/22,02:30,0.796,1.181,0.829,1.520,1.087,0.452,0.803,0.758,��,6.0,��
2019/01/22,02:40,0.795,1.180,0.830,1.523,1.087,0.454,0.803,0.759,���쐼,4.1,��
2019/01/22,02:50,0.795,1.180,0.830,1.522,1.087,0.453,0.803,0.760,���쐼,2.8,��
2019/01/22,03:00,0.794,1.182,0.832,1.520,1.088,0.452,0.802,0.760,��,3.0,��
2019/01/22,03:10,0.795,1.182,0.829,1.521,1.087,0.454,0.803,0.759,��,4.3,��
2019/01/22,03:20,0.795,1.180,0.828,1.519,1.086,0.454,0.804,0.761,��,4.9,��
2019/01/22,03:30,0.794,1.180,0.830,1.523,1.088,0.452,0.802,0.759,��,4.3,��
2019/01/22,03:40,0.793,1.180,0.831,1.518,1.085,0.452,0.802,0.759,��,2.0,��
2019/01/22,03:50,0.794,1.182,0.828,1.519,1.087,0.453,0.803,0.759,-,CALM,��
2019/01/22,04:00,0.796,1.179,0.830,1.520,1.088,0.454,0.803,0.758,��쓌,1.2,��
2019/01/22,04:10,0.793,1.181,0.829,1.521,1.089,0.454,0.802,0.758,�쐼,1.9,��
2019/01/22,04:20,0.792,1.181,0.829,1.520,1.089,0.454,0.801,0.759,��,2.8,��
2019/01/22,04:30,0.795,1.180,0.829,1.519,1.086,0.453,0.802,0.760,���쐼,3.2,��
2019/01/22,04:40,0.794,1.182,0.826,1.519,1.086,0.453,0.803,0.757,��,3.2,��
2019/01/22,04:50,0.795,1.180,0.830,1.520,1.087,0.452,0.802,0.757,���k��,3.8,��
2019/01/22,05:00,0.793,1.181,0.827,1.521,1.087,0.452,0.803,0.759,��,3.8,��
2019/01/22,05:10,0.792,1.180,0.826,1.517,1.088,0.453,0.803,0.757,���k��,5.2,��
2019/01/22,05:20,0.795,1.180,0.829,1.521,1.085,0.451,0.802,0.759,��,5.2,��
2019/01/22,05:30,0.793,1.180,0.827,1.518,1.085,0.452,0.803,0.759,��,5.2,��
2019/01/22,05:40,0.792,1.180,0.828,1.520,1.087,0.453,0.802,0.758,���k��,2.8,��
2019/01/22,05:50,0.793,1.178,0.827,1.520,1.088,0.452,0.801,0.758,��,2.2,��
2019/01/22,06:00,0.794,1.179,0.828,1.521,1.085,0.452,0.803,0.758,�k�k��,1.5,��
2019/01/22,06:10,0.794,1.182,0.828,1.519,1.085,0.451,0.802,0.758,�k�k��,2.9,��
2019/01/22,06:20,0.793,1.179,0.830,1.520,1.087,0.452,0.804,0.759,�k�k��,3.0,��
2019/01/22,06:30,0.792,1.180,0.829,1.518,1.089,0.453,0.801,0.758,�k��,4.2,��
2019/01/22,06:40,0.795,1.179,0.829,1.519,1.088,0.452,0.802,0.757,���k��,4.5,��
2019/01/22,06:50,0.795,1.180,0.829,1.518,1.085,0.452,0.802,0.757,���k��,3.1,��
2019/01/22,07:00,0.795,1.178,0.828,1.517,1.086,0.453,0.802,0.758,�k��,1.5,��
2019/01/22,07:10,0.794,1.177,0.830,1.520,1.087,0.452,0.802,0.756,���k��,1.7,��
2019/01/22,07:20,0.795,1.177,0.828,1.520,1.086,0.454,0.801,0.758,-,CALM,��
2019/01/22,07:30,0.794,1.178,0.828,1.517,1.086,0.453,0.802,0.757,���k��,1.9,��
2019/01/22,07:40,0.796,1.178,0.828,1.520,1.087,0.453,0.802,0.758,�k��,3.3,��
2019/01/22,07:50,0.795,1.178,0.829,1.519,1.087,0.453,0.803,0.759,���k��,3.4,��
2019/01/22,08:00,0.795,1.178,0.829,1.521,1.087,0.452,0.803,0.757,��,3.7,��
2019/01/22,08:10,0.794,1.179,0.827,1.520,1.086,0.452,0.804,0.760,��,5.0,��
2019/01/22,08:20,0.796,1.177,0.828,1.519,1.088,0.454,0.802,0.758,��,7.2,��
2019/01/22,08:30,0.795,1.175,0.829,1.519,1.086,0.452,0.804,0.758,���k��,6.7,��
2019/01/22,08:40,0.796,1.174,0.826,1.519,1.086,0.452,0.802,0.759,��,5.8,��
2019/01/22,08:50,0.795,1.173,0.829,1.519,1.088,0.452,0.803,0.759,��,4.2,��
2019/01/22,09:00,0.796,1.176,0.825,1.517,1.086,0.452,0.804,0.758,��,5.1,��
2019/01/22,09:10,0.797,1.174,0.828,1.520,1.088,0.453,0.803,0.760,���쐼,5.5,��
2019/01/22,09:20,0.798,1.177,0.826,1.516,1.090,0.452,0.803,0.760,��,8.1,��
2019/01/22,09:30,0.797,1.175,0.828,1.520,1.088,0.452,0.805,0.760,��,7.5,��
2019/01/22,09:40,0.795,1.175,0.828,1.518,1.090,0.452,0.804,0.759,��,8.0,��
2019/01/22,09:50,0.794,1.173,0.828,1.514,1.089,0.453,0.804,0.759,��,7.6,��
2019/01/22,10:00,0.794,1.173,0.828,1.515,1.086,0.454,0.801,0.759,��,7.5,��
2019/01/22,10:10,0.792,1.176,0.830,1.518,1.087,0.455,0.803,0.759,��,5.4,��
2019/01/22,10:20,0.795,1.177,0.828,1.520,1.087,0.454,0.802,0.759,�k��,3.5,��
2019/01/22,10:30,0.795,1.174,0.828,1.516,1.088,0.455,0.801,0.759,�k��,4.6,��
2019/01/22,10:40,0.795,1.168,0.827,1.518,1.089,0.453,0.801,0.760,�k�k��,4.8,��
2019/01/22,10:50,0.796,1.161,0.830,1.517,1.089,0.455,0.803,0.762,�k��,4.2,��
2019/01/22,11:00,0.795,1.169,0.828,1.519,1.082,0.454,0.801,0.760,���k��,5.2,��
2019/01/22,11:10,0.795,1.160,0.828,1.521,1.073,0.456,0.802,0.761,�k��,6.7,��
2019/01/22,11:20,0.799,1.167,0.830,1.522,1.074,0.455,0.803,0.759,���k��,5.9,��
2019/01/22,11:30,0.799,1.176,0.830,1.519,1.071,0.454,0.802,0.761,���k��,7.5,��
2019/01/22,11:40,0.799,1.181,0.829,1.522,1.085,0.454,0.802,0.759,���k��,9.5,��
2019/01/22,11:50,0.799,1.182,0.829,1.521,1.088,0.454,0.805,0.760,���k��,6.9,��
2019/01/22,12:00,0.799,1.181,0.829,1.522,1.089,0.454,0.804,0.761,��,7.2,��
2019/01/22,12:10,0.798,1.180,0.828,1.519,1.092,0.454,0.803,0.761,���k��,9.2,��
2019/01/22,12:20,0.799,1.180,0.827,1.522,1.092,0.455,0.803,0.760,���k��,8.6,��
2019/01/22,12:30,0.798,1.178,0.827,1.522,1.092,0.454,0.803,0.760,���k��,7.4,��
2019/01/22,12:40,0.799,1.178,0.828,1.524,1.090,0.455,0.801,0.759,���k��,8.1,��
2019/01/22,12:50,0.798,1.175,0.832,1.521,1.091,0.457,0.802,0.760,�k��,6.6,��
2019/01/22,13:00,0.799,1.173,0.832,1.523,1.089,0.454,0.802,0.761,�k��,7.0,��
2019/01/22,13:10,0.797,1.175,0.828,1.522,1.090,0.454,0.802,0.760,�k��,6.7,��
2019/01/22,13:20,0.799,1.169,0.830,1.521,1.090,0.453,0.801,0.759,�k��,6.4,��
2019/01/22,13:30,0.798,1.175,0.829,1.522,1.090,0.454,0.802,0.760,�k�k��,8.7,��
2019/01/22,13:40,0.798,1.172,0.829,1.521,1.089,0.453,0.802,0.758,�k�k��,8.6,�L
2019/01/22,13:50,0.798,1.171,0.828,1.523,1.088,0.453,0.803,0.758,�k��,6.9,��
2019/01/22,14:00,0.796,1.173,0.828,1.522,1.091,0.455,0.804,0.757,�k��,7.1,��
2019/01/22,14:10,0.797,1.170,0.829,1.521,1.090,0.453,0.805,0.759,�k��,6.3,��
2019/01/22,14:20,0.797,1.175,0.829,1.518,1.092,0.452,0.805,0.760,�k��,6.9,��
2019/01/22,14:30,0.797,1.174,0.829,1.522,1.091,0.453,0.803,0.759,�k��,6.4,��
2019/01/22,14:40,0.797,1.174,0.830,1.520,1.088,0.454,0.805,0.760,�k��,6.1,��
2019/01/22,14:50,0.797,1.176,0.828,1.519,1.092,0.454,0.804,0.759,�k��,8.2,��
2019/01/22,15:00,0.795,1.175,0.830,1.522,1.090,0.452,0.805,0.758,�k��,7.1,��
2019/01/22,15:10,0.796,1.176,0.828,1.523,1.091,0.453,0.804,0.758,�k��,6.5,��
2019/01/22,15:20,0.796,1.176,0.831,1.520,1.090,0.452,0.804,0.760,�k��,5.9,��
2019/01/22,15:30,0.797,1.177,0.828,1.522,1.090,0.453,0.804,0.760,�k��,6.0,��
2019/01/22,15:40,0.797,1.177,0.829,1.519,1.090,0.453,0.804,0.759,�k��,6.5,��
2019/01/22,15:50,0.796,1.176,0.830,1.522,1.091,0.451,0.805,0.759,�k��,6.4,��
2019/01/22,16:00,0.795,1.176,0.829,1.520,1.091,0.452,0.802,0.760,�k��,5.6,��
2019/01/22,16:10,0.797,1.180,0.830,1.522,1.090,0.452,0.804,0.758,�k��,4.5,��
2019/01/22,16:20,0.797,1.177,0.827,1.522,1.088,0.453,0.805,0.758,���k��,4.0,��
2019/01/22,16:30,0.797,1.183,0.828,1.522,1.090,0.454,0.804,0.757,���k��,3.9,��
2019/01/22,16:40,0.798,1.180,0.830,1.521,1.092,0.451,0.804,0.758,���k��,4.5,��
2019/01/22,16:50,0.797,1.179,0.830,1.518,1.089,0.453,0.801,0.757,���k��,3.8,��
2019/01/22,17:00,0.795,1.178,0.829,1.520,1.090,0.453,0.804,0.757,���k��,3.2,��
2019/01/22,17:10,0.796,1.176,0.825,1.523,1.087,0.452,0.803,0.758,���k��,3.4,��
2019/01/22,17:20,0.795,1.181,0.830,1.521,1.087,0.452,0.802,0.758,��,1.7,��
2019/01/22,17:30,0.795,1.181,0.829,1.519,1.088,0.452,0.804,0.760,��,1.9,��
2019/01/22,17:40,0.794,1.181,0.828,1.521,1.088,0.452,0.803,0.759,���쐼,3.3,��
2019/01/22,17:50,0.795,1.178,0.828,1.519,1.088,0.452,0.802,0.757,��,3.7,��
2019/01/22,18:00,0.795,1.164,0.826,1.520,1.086,0.452,0.804,0.759,���k��,2.6,��
2019/01/22,18:10,0.796,1.129,0.828,1.521,1.089,0.453,0.802,0.759,��,3.2,��
2019/01/22,18:20,0.795,1.117,0.827,1.516,1.089,0.451,0.803,0.758,��,3.0,��
2019/01/22,18:30,0.794,1.152,0.826,1.520,1.088,0.450,0.801,0.758,��,2.9,��
2019/01/22,18:40,0.795,1.175,0.826,1.519,1.089,0.452,0.802,0.759,���k��,2.2,��
2019/01/22,18:50,0.796,1.179,0.828,1.518,1.088,0.453,0.801,0.758,���k��,2.0,��
2019/01/22,19:00,0.795,1.177,0.827,1.517,1.087,0.451,0.800,0.759,���k��,2.2,��
2019/01/22,19:10,0.796,1.180,0.826,1.517,1.085,0.451,0.802,0.756,���k��,2.3,��
2019/01/22,19:20,0.793,1.178,0.825,1.520,1.087,0.451,0.802,0.757,���쐼,1.5,��
2019/01/22,19:30,0.794,1.161,0.827,1.520,1.087,0.452,0.800,0.758,�쐼,1.7,��
2019/01/22,19:40,0.793,1.174,0.822,1.519,1.088,0.452,0.802,0.757,���쐼,1.9,��
2019/01/22,19:50,0.795,1.178,0.826,1.518,1.086,0.451,0.802,0.756,��,3.2,��
2019/01/22,20:00,0.793,1.164,0.826,1.517,1.087,0.452,0.799,0.757,��,3.0,��
2019/01/22,20:10,0.794,1.128,0.826,1.518,1.088,0.451,0.800,0.757,��,2.6,��
2019/01/22,20:20,0.794,1.151,0.829,1.518,1.088,0.453,0.801,0.757,���쐼,1.9,��
2019/01/22,20:30,0.794,1.169,0.825,1.516,1.088,0.452,0.802,0.756,��,2.5,��
2019/01/22,20:40,0.792,1.181,0.826,1.518,1.087,0.452,0.801,0.757,��,3.2,��
2019/01/22,20:50,0.795,1.181,0.822,1.517,1.088,0.451,0.801,0.757,���쐼,2.6,��
2019/01/22,21:00,0.793,1.181,0.823,1.518,1.085,0.452,0.799,0.757,��,2.6,��
2019/01/22,21:10,0.794,1.180,0.827,1.518,1.089,0.451,0.801,0.757,���k��,1.5,��
2019/01/22,21:20,0.795,1.182,0.825,1.519,1.088,0.452,0.800,0.756,��,2.0,��
2019/01/22,21:30,0.793,1.178,0.827,1.515,1.088,0.450,0.799,0.758,��,1.9,��
2019/01/22,21:40,0.794,1.169,0.826,1.519,1.087,0.450,0.801,0.757,�쐼,1.2,��
2019/01/22,21:50,0.794,1.135,0.827,1.518,1.087,0.452,0.800,0.756,��쐼,1.2,��
2019/01/22,22:00,0.794,1.141,0.826,1.519,1.086,0.451,0.800,0.755,��쐼,1.2,��
2019/01/22,22:10,0.794,1.153,0.823,1.519,1.088,0.451,0.799,0.758,��쐼,2.3,��
2019/01/22,22:20,0.792,1.169,0.822,1.514,1.086,0.451,0.801,0.757,��쐼,1.7,��
2019/01/22,22:30,0.794,1.174,0.825,1.516,1.087,0.452,0.801,0.757,���쐼,1.2,��
2019/01/22,22:40,0.793,1.176,0.828,1.517,1.085,0.452,0.800,0.757,��,1.5,��
2019/01/22,22:50,0.792,1.181,0.827,1.516,1.087,0.451,0.800,0.757,���k��,2.8,��
2019/01/22,23:00,0.792,1.179,0.825,1.520,1.086,0.450,0.799,0.757,���k��,2.6,��
2019/01/22,23:10,0.793,1.181,0.825,1.519,1.087,0.450,0.800,0.756,���k��,2.6,��
2019/01/22,23:20,0.793,1.179,0.826,1.517,1.086,0.452,0.799,0.759,���k��,2.8,��
2019/01/22,23:30,0.791,1.176,0.827,1.518,1.085,0.452,0.800,0.756,���k��,2.3,��
2019/01/22,23:40,0.793,1.177,0.826,1.518,1.081,0.451,0.799,0.756,��,2.6,��
2019/01/22,23:50,0.793,1.178,0.825,1.517,1.088,0.451,0.798,0.756,���쐼,2.9,��
